This is the latest recevied weather packets stored in our database for station/object KE9ADS. If no packets are shown the sender has not sent any weather packets the latest 10 day(s).
| Time | Temp. | Humidity | Pressure | Rain* | Wind** | Luminosity | Snow |
|---|---|---|---|---|---|---|---|
| 1777586565 | 11.11° C | 80% | 1017 hPa | 3.05 mm | - | 63 W/m² | - |
| 1777585964 | 12.22° C | 71% | 1017 hPa | 0 mm | - | 27 W/m² | - |
| 1777585361 | 12.22° C | 70% | 1017 hPa | 0 mm | - | 41 W/m² | - |
| 1777584758 | 12.22° C | 70% | 1017 hPa | 0 mm | - | 45 W/m² | - |
| 1777584158 | 12.22° C | 69% | 1017.1 hPa | 0 mm | - | 51 W/m² | - |
| 1777583553 | 12.22° C | 68% | 1017.2 hPa | 0 mm | - | 37 W/m² | - |
| 1777582952 | 12.78° C | 67% | 1017.2 hPa | 0 mm | - | 57 W/m² | - |
| 1777582351 | 12.78° C | 66% | 1017.5 hPa | 0 mm | - | 45 W/m² | - |
| 1777581750 | 12.78° C | 64% | 1017.4 hPa | 0 mm | - | 146 W/m² | - |
| 1777581150 | 13.33° C | 64% | 1017.7 hPa | 0 mm | - | 217 W/m² | - |
| 1777580546 | 12.78° C | 70% | 1017.8 hPa | 0 mm | - | 216 W/m² | - |
| 1777579945 | 12.22° C | 68% | 1018 hPa | 0 mm | - | 166 W/m² | - |
| 1777579344 | 12.22° C | 71% | 1018.1 hPa | 0 mm | - | 165 W/m² | - |
| 1777578740 | 11.67° C | 71% | 1018.3 hPa | 0 mm | - | 164 W/m² | - |
| 1777578136 | 11.11° C | 71% | 1018.3 hPa | 0 mm | - | 101 W/m² | - |
| 1777577534 | 11.11° C | 72% | 1018.5 hPa | 0 mm | - | 87 W/m² | - |
| 1777576933 | 11.11° C | 73% | 1018.4 hPa | 0 mm | - | 125 W/m² | - |
| 1777576329 | 11.11° C | 74% | 1018.4 hPa | 0 mm | - | 197 W/m² | - |
| 1777575728 | 10.56° C | 78% | 1018.7 hPa | 1.78 mm | - | 189 W/m² | - |
| 1777575126 | 10.56° C | 76% | 1019 hPa | 0 mm | - | 82 W/m² | - |
| 1777574526 | 10.56° C | 74% | 1018.9 hPa | 0 mm | - | 101 W/m² | - |
| 1777573922 | 10.56° C | 71% | 1018.9 hPa | 0 mm | - | 79 W/m² | - |
| 1777573318 | 11.67° C | 70% | 1019.1 hPa | 0 mm | - | 87 W/m² | - |
| 1777572716 | 11.67° C | 67% | 1019.1 hPa | 0 mm | - | 91 W/m² | - |
| 1777572114 | 12.22° C | 64% | 1019 hPa | 0 mm | - | 107 W/m² | - |
* Rain latest hour (hover to see other rain measurements)
** Current wind speed in m/s (hover to see current wind gust speed)